Regional Weather Roundup
Issued by NWS

Home | Current Version | Previous Version | Graphics & Text | Print | Product List | Glossary On
Versions: 1 2 3 4 5 6 7 8 9 10 11 12 13 14 15 16 17 18 19 20 21 22 23 24 25 26 27 28 29 30 31 32 33 34 35 36 37 38 39 40 41 42 43 44 45 46 47 48 49 50
000
ASUS45 KBOI 061610
RWRID
WEATHER ROUNDUP FOR IDAHO
NATIONAL WEATHER SERVICE BOISE ID
1000 AM MDT WED MAY 06 2015

NOTE: "FAIR" INDICATES FEW OR NO CLOUDS BELOW 12000 FEET
WITH NO SIGNIFICANT WEATHER AND/OR OBSTRUCTIONS TO VISIBILITY

IDZ012-014-061700-
SOUTHWEST IDAHO


CITY           SKY/WX    TMP DP  RH WIND       PRES   REMARKS
BOISE          CLOUDY    49  28  44 NW13      29.89S
CALDWELL       MOSUNNY   48  27  43 NW17      29.92S
$$

IDZ016-017-061700-
SOUTHCENTRAL IDAHO


CITY           SKY/WX    TMP DP  RH WIND       PRES   REMARKS
BURLEY         PTSUNNY   50  28  42 W14G21    29.84S
JEROME         PTSUNNY   45  24  43 SW15      29.86S
TWIN FALLS     PTSUNNY   50  23  34 W16       29.86R
$$

IDZ019>023-061700-
SOUTHEAST IDAHO


CITY           SKY/WX    TMP DP  RH WIND       PRES   REMARKS
IDAHO FALLS    PTSUNNY   51  32  48 S13       29.84S
POCATELLO      MOSUNNY   49  24  37 SW17      29.86S
REXBURG        CLOUDY    48  33  56 S8        29.83F
$$

IDZ006-010-011-018-031-032-061700-
CENTRAL IDAHO MOUNTAINS


CITY           SKY/WX    TMP DP  RH WIND       PRES   REMARKS
MCCALL         SUNNY     45  27  49 N5        29.86S
HAILEY         PTSUNNY   48  28  46 SE7       29.85R
STANLEY          N/A     41  24  51 N6        29.87F
SALMON         SUNNY     48  28  46 N5        29.87F
CHALLIS        SUNNY     47  30  51 CALM      29.85F
$$

IDZ002-004-006-007-026-061700-
NORTHERN IDAHO


CITY           SKY/WX    TMP DP  RH WIND       PRES   REMARKS
LEWISTON       MOSUNNY   51  34  52 CALM      30.01S
LOWELL           N/A     49  37  63 CALM      29.99F
COEUR D`ALENE  SUNNY     48  32  53 SW5       29.99S
MULLAN PASS    MOSUNNY   34  24  67 N3        29.94S
$$



USA.gov is the U.S. government's official web portal to all federal, state and local government web resources and services.